KAL5542 RKPC-RKSI

Flight info

Callsign KAL5542
Flight time 0h 52m
Altitude 33000
Route KAMIT1W KAMIT Y722 OLMEN OLMEN2E
Aircraft B739/M-SDE2E3FGHIRWXY/LB1

Departure

Time 2026-05-01 10:23
Airport Jeju International Airport (RKPC)

Arrival

Time 2026-05-01 11:16
Airport Incheon International Airport (RKSI)
Time Latitude Longitude Altitude Speed Heading
2026-05-01 09:52 33.50672 126.48746 88 ft 0 kts 328°
2026-05-01 10:16 33.50676 126.48742 88 ft 2 kts 328°
2026-05-01 10:16 33.50701 126.48724 90 ft 6 kts 328°
2026-05-01 10:16 33.50785 126.48766 88 ft 8 kts 60°
2026-05-01 10:17 33.50814 126.48826 89 ft 8 kts 59°
2026-05-01 10:17 33.50886 126.48967 90 ft 11 kts 57°
2026-05-01 10:17 33.50928 126.49047 90 ft 11 kts 57°
2026-05-01 10:18 33.51008 126.49200 89 ft 11 kts 59°
2026-05-01 10:18 33.51047 126.49277 88 ft 11 kts 59°
2026-05-01 10:18 33.51085 126.49353 88 ft 11 kts 59°
2026-05-01 10:19 33.51129 126.49439 89 ft 12 kts 58°
2026-05-01 10:19 33.51173 126.49525 91 ft 12 kts 58°
2026-05-01 10:19 33.51216 126.49609 88 ft 12 kts 58°
2026-05-01 10:20 33.51301 126.49775 88 ft 13 kts 58°
2026-05-01 10:20 33.51367 126.49826 87 ft 12 kts 351°
2026-05-01 10:20 33.51392 126.49814 85 ft 0 kts 332°
2026-05-01 10:21 33.51396 126.49812 86 ft 2 kts 332°
2026-05-01 10:21 33.51427 126.49791 86 ft 8 kts 328°
2026-05-01 10:22 33.51447 126.49677 86 ft 9 kts 238°
2026-05-01 10:22 33.51146 126.49092 90 ft 100 kts 238°
2026-05-01 10:23 33.50684 126.48192 93 ft 151 kts 239°
2026-05-01 10:23 33.49422 126.45713 778 ft 186 kts 239°
2026-05-01 10:23 33.48765 126.44457 1598 ft 176 kts 243°
2026-05-01 10:24 33.47336 126.41670 2208 ft 217 kts 243°
2026-05-01 10:24 33.45610 126.38292 2871 ft 254 kts 246°
2026-05-01 10:25 33.45772 126.34307 4288 ft 250 kts 306°
2026-05-01 10:25 33.48622 126.31994 5766 ft 253 kts 339°
2026-05-01 10:26 33.50279 126.31239 6494 ft 256 kts 340°
2026-05-01 10:26 33.51953 126.30487 7230 ft 257 kts 340°
2026-05-01 10:26 33.55297 126.28969 8710 ft 259 kts 341°
2026-05-01 10:27 33.58691 126.27407 10159 ft 263 kts 341°
2026-05-01 10:27 33.62363 126.25707 10589 ft 303 kts 340°
2026-05-01 10:28 33.64398 126.24858 10963 ft 313 kts 349°
2026-05-01 10:28 33.68681 126.25794 12218 ft 328 kts 26°
2026-05-01 10:28 33.70467 126.27565 12803 ft 343 kts 46°
2026-05-01 10:29 33.73214 126.32361 13954 ft 358 kts 51°
2026-05-01 10:29 33.74570 126.34874 14492 ft 363 kts 51°
2026-05-01 10:30 33.77389 126.40048 15611 ft 373 kts 51°
2026-05-01 10:30 33.80305 126.45328 16706 ft 384 kts 50°
2026-05-01 10:31 33.83291 126.50715 17847 ft 392 kts 50°
2026-05-01 10:31 33.86347 126.56238 18833 ft 402 kts 50°
2026-05-01 10:32 33.89473 126.61899 19786 ft 409 kts 50°
2026-05-01 10:32 33.91056 126.64771 20257 ft 414 kts 50°
2026-05-01 10:32 33.94289 126.70574 21187 ft 419 kts 45°
2026-05-01 10:33 33.98901 126.74250 22202 ft 390 kts
2026-05-01 10:33 34.04208 126.75051 23098 ft 386 kts 357°
2026-05-01 10:34 34.06908 126.75290 23518 ft 390 kts 357°
2026-05-01 10:34 34.09591 126.75537 23942 ft 391 kts 357°
2026-05-01 10:34 34.12313 126.75805 24355 ft 393 kts 357°
2026-05-01 10:35 34.17804 126.76380 24972 ft 400 kts 357°
2026-05-01 10:35 34.20611 126.76681 24976 ft 407 kts 357°
2026-05-01 10:35 34.23461 126.76990 24993 ft 414 kts 357°
2026-05-01 10:35 34.26354 126.77297 24998 ft 421 kts 357°
2026-05-01 10:36 34.32240 126.77912 24989 ft 431 kts 358°
2026-05-01 10:36 34.35254 126.78228 25003 ft 436 kts 358°
2026-05-01 10:36 34.38294 126.78549 24987 ft 440 kts 358°
2026-05-01 10:37 34.41350 126.78873 24984 ft 441 kts 358°
2026-05-01 10:37 34.47478 126.79526 24979 ft 441 kts 358°
2026-05-01 10:37 34.50508 126.79850 24978 ft 441 kts 358°
2026-05-01 10:38 34.53571 126.80181 24956 ft 442 kts 358°
2026-05-01 10:38 34.56630 126.80505 24991 ft 441 kts 358°
2026-05-01 10:38 34.59691 126.80829 24979 ft 441 kts 358°
2026-05-01 10:38 34.62756 126.81155 24981 ft 441 kts 358°
2026-05-01 10:39 34.65825 126.81481 24972 ft 441 kts 358°
2026-05-01 10:39 34.68883 126.81805 24974 ft 441 kts 358°
2026-05-01 10:39 34.71939 126.82130 24973 ft 441 kts 358°
2026-05-01 10:39 34.75005 126.82457 24965 ft 441 kts 358°
2026-05-01 10:40 34.78023 126.82779 24972 ft 440 kts 358°
2026-05-01 10:40 34.81080 126.83106 24980 ft 440 kts 358°
2026-05-01 10:40 34.84135 126.83436 24976 ft 439 kts 358°
2026-05-01 10:40 34.87177 126.83761 24969 ft 439 kts 358°
2026-05-01 10:41 34.90217 126.84087 24972 ft 438 kts 358°
2026-05-01 10:41 34.93257 126.84413 24973 ft 438 kts 358°
2026-05-01 10:41 34.99286 126.85057 24967 ft 437 kts 358°
2026-05-01 10:42 35.02328 126.85383 24971 ft 437 kts 358°
2026-05-01 10:42 35.05359 126.85710 24973 ft 437 kts 358°
2026-05-01 10:42 35.08392 126.86036 24976 ft 437 kts 358°
2026-05-01 10:42 35.11432 126.86363 24976 ft 437 kts 358°
2026-05-01 10:43 35.14467 126.86690 24977 ft 438 kts 358°
2026-05-01 10:43 35.17500 126.87018 24988 ft 438 kts 358°
2026-05-01 10:43 35.20532 126.87348 24987 ft 437 kts 358°
2026-05-01 10:43 35.23562 126.87679 24977 ft 436 kts 358°
2026-05-01 10:44 35.26577 126.88008 24975 ft 435 kts 358°
2026-05-01 10:44 35.29593 126.88337 24975 ft 434 kts 358°
2026-05-01 10:44 35.32567 126.88660 24961 ft 434 kts 358°
2026-05-01 10:44 35.35571 126.88989 25000 ft 432 kts 358°
2026-05-01 10:45 35.38572 126.89318 24980 ft 432 kts 358°
2026-05-01 10:45 35.41569 126.89641 24967 ft 432 kts 358°
2026-05-01 10:45 35.44569 126.89971 24977 ft 432 kts 358°
2026-05-01 10:45 35.47487 126.90292 24969 ft 431 kts 358°
2026-05-01 10:46 35.50523 126.90628 24979 ft 431 kts 358°
2026-05-01 10:46 35.53509 126.90952 24973 ft 431 kts 358°
2026-05-01 10:46 35.56496 126.91277 24991 ft 430 kts 358°
2026-05-01 10:46 35.59481 126.91603 24984 ft 430 kts 358°
2026-05-01 10:47 35.62473 126.91928 24982 ft 430 kts 358°
2026-05-01 10:47 35.65453 126.92254 24979 ft 430 kts 358°
2026-05-01 10:47 35.68437 126.92582 24978 ft 430 kts 358°
2026-05-01 10:47 35.71414 126.92909 24972 ft 429 kts 358°
2026-05-01 10:48 35.74348 126.93232 24993 ft 429 kts 358°
2026-05-01 10:48 35.77320 126.93559 24976 ft 429 kts 358°
2026-05-01 10:48 35.80257 126.93882 24977 ft 429 kts 358°
2026-05-01 10:48 35.83229 126.94209 24967 ft 429 kts 358°
2026-05-01 10:49 35.86207 126.94536 24961 ft 428 kts 358°
2026-05-01 10:49 35.89182 126.94864 24961 ft 428 kts 358°
2026-05-01 10:49 35.92138 126.95193 24955 ft 421 kts 358°
2026-05-01 10:49 35.94993 126.95521 24966 ft 401 kts 358°
2026-05-01 10:50 35.96803 126.95731 24948 ft 388 kts 358°
2026-05-01 10:50 36.00259 126.96129 24933 ft 364 kts 357°
2026-05-01 10:50 36.02728 126.96409 24935 ft 347 kts 356°
2026-05-01 10:50 36.05090 126.96675 24933 ft 331 kts 356°
2026-05-01 10:51 36.07336 126.96925 24882 ft 320 kts 356°
2026-05-01 10:51 36.09515 126.97162 24644 ft 315 kts 356°
2026-05-01 10:51 36.11695 126.97398 24282 ft 314 kts 356°
2026-05-01 10:51 36.13868 126.97634 23947 ft 311 kts 356°
2026-05-01 10:52 36.16023 126.97871 23563 ft 310 kts 357°
2026-05-01 10:52 36.18139 126.98104 23114 ft 310 kts 357°
2026-05-01 10:52 36.20283 126.98343 22709 ft 307 kts 357°
2026-05-01 10:52 36.22407 126.98581 22308 ft 305 kts 358°
2026-05-01 10:53 36.24515 126.98817 21909 ft 303 kts 358°
2026-05-01 10:53 36.26605 126.99052 21539 ft 301 kts 358°
2026-05-01 10:53 36.28685 126.99286 21168 ft 299 kts 358°
2026-05-01 10:53 36.30751 126.99518 20800 ft 297 kts 358°
2026-05-01 10:54 36.32780 126.99745 20442 ft 296 kts 358°
2026-05-01 10:54 36.34816 126.99796 20072 ft 291 kts 353°
2026-05-01 10:54 36.36833 126.99686 19714 ft 289 kts 352°
2026-05-01 10:54 36.38836 126.99540 19349 ft 288 kts 352°
2026-05-01 10:55 36.40837 126.99381 18898 ft 290 kts 352°
2026-05-01 10:55 36.42848 126.99204 18534 ft 289 kts 352°
2026-05-01 10:55 36.44844 126.99018 18165 ft 287 kts 352°
2026-05-01 10:55 36.46818 126.98815 17982 ft 279 kts 351°
2026-05-01 10:56 36.48752 126.98614 17708 ft 280 kts 351°
2026-05-01 10:56 36.50684 126.98402 17149 ft 285 kts 351°
2026-05-01 10:56 36.52669 126.98172 16667 ft 287 kts 352°
2026-05-01 10:56 36.54651 126.97932 16304 ft 285 kts 351°
2026-05-01 10:57 36.56614 126.97687 15981 ft 282 kts 351°
2026-05-01 10:57 36.58561 126.97439 15639 ft 280 kts 351°
2026-05-01 10:57 36.60497 126.97186 15292 ft 279 kts 351°
2026-05-01 10:57 36.62421 126.96928 14984 ft 276 kts 351°
2026-05-01 10:58 36.64347 126.96663 14948 ft 281 kts 351°
2026-05-01 10:58 36.66301 126.96389 14900 ft 281 kts 351°
2026-05-01 10:58 36.68230 126.96113 14895 ft 277 kts 351°
2026-05-01 10:58 36.69492 126.95931 14899 ft 276 kts 351°
2026-05-01 10:59 36.72026 126.95566 14746 ft 272 kts 351°
2026-05-01 10:59 36.73900 126.95308 14352 ft 274 kts 351°
2026-05-01 10:59 36.75807 126.95044 13961 ft 276 kts 351°
2026-05-01 10:59 36.77714 126.94775 13613 ft 275 kts 351°
2026-05-01 11:00 36.78972 126.94594 13376 ft 274 kts 351°
2026-05-01 11:00 36.80859 126.94321 13002 ft 273 kts 351°
2026-05-01 11:00 36.82747 126.94045 12638 ft 272 kts 351°
2026-05-01 11:00 36.84620 126.93771 12269 ft 271 kts 351°
2026-05-01 11:01 36.86492 126.93495 11926 ft 270 kts 351°
2026-05-01 11:01 36.88355 126.93217 11492 ft 269 kts 351°
2026-05-01 11:01 36.90815 126.92846 11029 ft 268 kts 351°
2026-05-01 11:01 36.92068 126.92656 10941 ft 268 kts 351°
2026-05-01 11:02 36.93905 126.92376 10906 ft 270 kts 351°
2026-05-01 11:02 36.95754 126.92094 10873 ft 265 kts 351°
2026-05-01 11:02 36.97558 126.91821 10805 ft 256 kts 351°
2026-05-01 11:02 36.99289 126.91561 10675 ft 247 kts 351°
2026-05-01 11:03 37.00992 126.91306 10413 ft 245 kts 351°
2026-05-01 11:03 37.02672 126.91053 10286 ft 241 kts 351°
2026-05-01 11:03 37.04326 126.90802 10060 ft 238 kts 351°
2026-05-01 11:03 37.05959 126.90554 9814 ft 235 kts 351°
2026-05-01 11:04 37.07572 126.90309 9547 ft 232 kts 351°
2026-05-01 11:04 37.09114 126.89832 9263 ft 227 kts 333°
2026-05-01 11:04 37.10488 126.88890 9025 ft 224 kts 331°
2026-05-01 11:04 37.11845 126.87954 8748 ft 221 kts 331°
2026-05-01 11:05 37.13172 126.87047 8495 ft 218 kts 331°
2026-05-01 11:05 37.14502 126.86141 8257 ft 216 kts 331°
2026-05-01 11:05 37.15823 126.85250 7967 ft 214 kts 331°
2026-05-01 11:05 37.17132 126.84375 7720 ft 212 kts 331°
2026-05-01 11:06 37.18430 126.83512 7456 ft 210 kts 331°
2026-05-01 11:06 37.19718 126.82660 7227 ft 208 kts 331°
2026-05-01 11:06 37.20985 126.81827 7039 ft 203 kts 331°
2026-05-01 11:07 37.23025 126.79539 6926 ft 203 kts 294°
2026-05-01 11:07 37.23524 126.77854 6714 ft 209 kts 291°
2026-05-01 11:07 37.23987 126.76156 6483 ft 207 kts 291°
2026-05-01 11:07 37.24448 126.74451 6226 ft 205 kts 291°
2026-05-01 11:08 37.24901 126.72758 5967 ft 203 kts 291°
2026-05-01 11:08 37.25347 126.71086 5705 ft 201 kts 291°
2026-05-01 11:08 37.26214 126.67852 5238 ft 190 kts 291°
2026-05-01 11:09 37.26636 126.66296 4976 ft 185 kts 291°
2026-05-01 11:09 37.27044 126.64810 4715 ft 179 kts 291°
2026-05-01 11:09 37.27452 126.63339 4460 ft 177 kts 292°
2026-05-01 11:10 37.29098 126.61320 3936 ft 161 kts 321°
2026-05-01 11:10 37.30004 126.60477 3732 ft 165 kts 321°
2026-05-01 11:10 37.30917 126.59642 3514 ft 157 kts 321°
2026-05-01 11:10 37.31791 126.58854 3329 ft 155 kts 320°
2026-05-01 11:11 37.32662 126.58071 3141 ft 150 kts 320°
2026-05-01 11:11 37.33505 126.57317 2919 ft 146 kts 320°
2026-05-01 11:11 37.34312 126.56596 2717 ft 140 kts 319°
2026-05-01 11:11 37.35099 126.55891 2536 ft 138 kts 319°
2026-05-01 11:12 37.35874 126.55198 2357 ft 135 kts 319°
2026-05-01 11:12 37.36635 126.54516 2185 ft 134 kts 319°
2026-05-01 11:12 37.37389 126.53842 2006 ft 134 kts 319°
2026-05-01 11:12 37.38145 126.53165 1832 ft 132 kts 319°
2026-05-01 11:13 37.38888 126.52502 1656 ft 131 kts 319°
2026-05-01 11:13 37.39640 126.51828 1469 ft 135 kts 319°
2026-05-01 11:13 37.40412 126.51138 1291 ft 137 kts 318°
2026-05-01 11:13 37.41198 126.50436 1102 ft 138 kts 318°
2026-05-01 11:14 37.41975 126.49743 927 ft 136 kts 320°
2026-05-01 11:14 37.42752 126.49046 749 ft 143 kts 319°
2026-05-01 11:14 37.43558 126.48325 571 ft 142 kts 317°
2026-05-01 11:14 37.44365 126.47611 348 ft 139 kts 319°
2026-05-01 11:15 37.45149 126.46909 193 ft 138 kts 317°
2026-05-01 11:15 37.45851 126.46288 65 ft 130 kts 317°
2026-05-01 11:15 37.46530 126.45655 33 ft 110 kts 316°
2026-05-01 11:15 37.47053 126.45200 32 ft 64 kts 327°
2026-05-01 11:16 37.47324 126.44962 31 ft 37 kts 323°
2026-05-01 11:16 37.47457 126.44738 30 ft 25 kts 295°
2026-05-01 11:16 37.47515 126.44572 32 ft 20 kts 294°
2026-05-01 11:16 37.47609 126.44451 31 ft 19 kts 325°
2026-05-01 11:17 37.47712 126.44356 32 ft 15 kts 324°
2026-05-01 11:17 37.47773 126.44299 32 ft 9 kts 312°
2026-05-01 11:17 37.47774 126.44230 32 ft 8 kts 243°
2026-05-01 11:17 37.47743 126.44170 32 ft 8 kts 235°
2026-05-01 11:18 37.47711 126.44113 32 ft 8 kts 234°
2026-05-01 11:18 37.47679 126.44059 32 ft 8 kts 234°
2026-05-01 11:18 37.47650 126.44005 32 ft 7 kts 235°
2026-05-01 11:18 37.47621 126.43953 32 ft 7 kts 236°
2026-05-01 11:19 37.47582 126.43919 32 ft 7 kts 192°
2026-05-01 11:19 37.47539 126.43940 32 ft 7 kts 149°
2026-05-01 11:19 37.47500 126.43972 32 ft 7 kts 145°
2026-05-01 11:19 37.47457 126.44010 32 ft 9 kts 144°
2026-05-01 11:20 37.47400 126.44061 32 ft 12 kts 145°
2026-05-01 11:20 37.47330 126.44123 32 ft 12 kts 145°
2026-05-01 11:20 37.47261 126.44184 30 ft 12 kts 143°
2026-05-01 11:20 37.47195 126.44244 32 ft 12 kts 144°
2026-05-01 11:21 37.47127 126.44299 31 ft 11 kts 162°
2026-05-01 11:21 37.47066 126.44251 32 ft 11 kts 233°
2026-05-01 11:21 37.47022 126.44174 32 ft 11 kts 234°
2026-05-01 11:21 37.46978 126.44101 32 ft 10 kts 220°
2026-05-01 11:22 37.46914 126.44111 31 ft 10 kts 137°
2026-05-01 11:22 37.46865 126.44173 32 ft 10 kts 133°
2026-05-01 11:22 37.46819 126.44235 30 ft 10 kts 134°
2026-05-01 11:22 37.46768 126.44286 31 ft 9 kts 145°
2026-05-01 11:23 37.46715 126.44332 30 ft 9 kts 144°
2026-05-01 11:23 37.46666 126.44375 32 ft 8 kts 145°
2026-05-01 11:23 37.46613 126.44398 32 ft 8 kts 193°
2026-05-01 11:23 37.46573 126.44349 32 ft 8 kts 233°
2026-05-01 11:24 37.46559 126.44324 32 ft 0 kts 233°
2026-05-01 11:25 37.46546 126.44296 32 ft 4 kts 255°
2026-05-01 11:25 37.46559 126.44263 32 ft 5 kts 308°
2026-05-01 11:26 37.46588 126.44222 31 ft 7 kts 311°
2026-05-01 11:26 37.46603 126.44200 32 ft 1 kts 312°
2026-05-01 11:26 37.46608 126.44194 30 ft 1 kts 312°
2026-05-01 11:27 37.46610 126.44191 31 ft 0 kts 312°